Location: Unspecified
(38.7273°N, 77.0677°W)
Time: 14:27:05
(UTC-04:00)

Tianhe-1 - Visible Passes

Search period start: 13 June 2021 00:00
Search period end: 23 June 2021 00:00
Orbit: 375 x 387 km, 41.5° (Epoch: 12 June)

Date Brightness Start Highest point End Pass type
(mag) Time Alt. Az. Time Alt. Az. Time Alt. Az.
17 Jun 3.1 04:48:34 10° SSW 04:50:52 19° SSE 04:53:12 10° E visible
18 Jun 3.7 03:50:22 10° SE 03:50:22 10° SE 03:50:41 10° SE visible
19 Jun 2.2 04:24:17 22° SSW 04:25:36 31° SSE 04:28:26 10° E visible
20 Jun 3.5 03:26:01 15° ESE 03:26:01 15° ESE 03:27:03 10° ESE visible
20 Jun 1.0 04:58:08 10° WSW 05:01:16 86° SSE 05:04:26 10° ENE visible
21 Jun 1.3 03:59:50 45° SSW 04:00:21 52° SSE 04:03:25 10° E visible
22 Jun 3.6 03:01:31 15° E 03:01:31 15° E 03:02:17 10° E visible
22 Jun 1.3 04:33:37 15° W 04:36:07 68° NNW 04:39:15 10° ENE visible
